Regional Weather Roundup
Issued by NWS Charleston, SC

Home | Current Version | Previous Version | Text Only | Print | Product List | Glossary On
Versions: 1 2 3 4 5 6 7 8 9 10 11 12 13 14 15 16 17 18 19 20 21 22 23 24 25 26 27 28 29 30 31 32 33 34 35 36 37 38 39 40 41 42 43 44 45 46 47 48 49 50
000
ASUS42 KCHS 021826
RWRCHS

REGIONAL WEATHER ROUNDUP
NATIONAL WEATHER SERVICE CHARLESTON SC
100 PM EST MON MAR 02 2015

NOTE: "FAIR" INDICATES FEW OR NO CLOUDS BELOW 12,000 FEET WITH NO
SIGNIFICANT WEATHER AND/OR OBSTRUCTIONS TO VISIBILITY.

NOT ALL STATIONS ARE QUALITY CONTROLLED BY THE NATIONAL
WEATHER SERVICE. USE DATA WITH CAUTION...ESPECIALLY
DEWPOINT OBSERVATIONS.

SCZ027-030-031-034>040-042>050-021900-
...SOUTHEAST SOUTH CAROLINA...

CITY           SKY/WX    TMP DP  RH WIND       PRES   REMARKS
N CHARLESTON   PTSUNNY   65  56  72 NW8       30.25F
6HR MIN TEMP:  45; 6HR MAX TEMP:  65;

WATERFRONT PRK   N/A     61 N/A N/A SW7         N/A
MOUNT PLEASANT FAIR      66  57  72 W9        30.22F
PINOPOLIS        N/A     59  54  82 W6        30.18F
MONCKS CORNER  FAIR      70  57  64 SW6       30.21F
SUMMERVILLE    FAIR      68  59  73 SW6       30.23F
BEAUFORT MCAS  PTSUNNY   62  56  80 VRB7      30.26F
6HR MIN TEMP:  47; 6HR MAX TEMP:  60;

BEAUFORT ARPT  MOCLDY    63  59  88 W6        30.25F
HILTON HEAD IS MOSUNNY   64  57  77 W7        30.28F
WALTERBORO     PTCLDY    68  59  73 W7        30.24F
ALLENDALE      FAIR      68  57  68 VRB7      30.23F

...SOUTHERN MIDLANDS AND PEE DEE...

CITY           SKY/WX    TMP DP  RH WIND       PRES   REMARKS
GEORGETOWN     NOT AVBL
KINGSTREE      NOT AVBL
ORANGEBURG     SUNNY     67  55  65 W7        30.23F
6HR MIN TEMP:  47; 6HR MAX TEMP:  67;

BARNWELL       FAIR      72  59  64 W13       30.23F
AIKEN          FAIR      72  55  56 W8G16     30.25F
MANNING        FAIR      68  23  18 NW7       30.23F
COLUMBIA       MOSUNNY   68  55  63 NW8       30.23F
6HR MIN TEMP:  47; 6HR MAX TEMP:  69;

SUMTER         MOSUNNY   65  55  69 VRB7      30.21F
6HR MIN TEMP:  45; 6HR MAX TEMP:  65;

FLORENCE       CLOUDY    56  50  80 W7        30.25F
6HR MIN TEMP:  44; 6HR MAX TEMP:  56;

MYRTLE BEACH   PTSUNNY   61  54  77 N12       30.26F
N MYRTLE BEACH CLOUDY    57  51  80 NW7       30.24F
6HR MIN TEMP:  45; 6HR MAX TEMP:  59;


$$

GAZ063-065-086>088-099>101-113>116-118-119-134>141-150-021900-
...SOUTHEAST GEORGIA...

CITY           SKY/WX    TMP DP  RH WIND       PRES   REMARKS
SAVANNAH ARPT  PTSUNNY   66  56  70 W9        30.28F
6HR MIN TEMP:  47; 6HR MAX TEMP:  66;

HUNTER AAF     SUNNY     68  59  73 NW9       30.25F
6HR MIN TEMP:  48; 6HR MAX TEMP:  68;

FORT STEWART   SUNNY     68  59  73 W9        30.26F
6HR MIN TEMP:  49; 6HR MAX TEMP:  68;

STATESBORO     SUNNY     69  61  76 W9        30.26F
SYLVANIA       PTCLDY    67  60  78 NW12      30.27F
CLAXTON        CLOUDY    68  61  77 W7        30.28F

...CSRA...CENTRAL AND FAR SOUTHEAST GEORGIA...

CITY           SKY/WX    TMP DP  RH WIND       PRES   REMARKS
THOMSON        SUNNY     73  61  66 W6        30.27F
AUGUSTA-BUSH   SUNNY     70  55  59 W8        30.25F
6HR MIN TEMP:  45; 6HR MAX TEMP:  70;

AUGUSTA-DANIEL SUNNY     71  55  56 VRB5G16   30.25F
SWAINSBORO     NOT AVBL
VIDALIA        PTSUNNY   66  59  77 W7        30.29F
EASTMAN        FAIR      68  60  77 W3        30.31F
HAZLEHURST     MOCLDY    67  61  81 W3        30.28F
ALMA           CLOUDY    63  57  81 NW6       30.29F
6HR MIN TEMP:  50; 6HR MAX TEMP:  62;

WAYCROSS       CLOUDY    69  63  81 N7        30.29F
JESUP          CLOUDY    72  64  78 NW8       30.28F
BAXLEY         CLOUDY    64  59  82 W5        30.29F
BRUNSWICK      CLOUDY    64  61  88 NW6       30.29F
SAINT SIMONS   CLOUDY    62  57  83 W6        30.30F
6HR MIN TEMP:  50; 6HR MAX TEMP:  62;


$$

SCZ027-028-034-036>038-045-046-048>050-GAZ119-141-021900-
...LAKE AND SUPPLEMENTAL COASTAL OBSERVATIONS...

STATION/POSITION TIME  TEMP    WIND        PRES    WAVE   SWELL
                       AIR SEA DIR/SP/G            HT/PER HT/PER/DIR
                 (UTC) (F)     (DEG/KT/KT) (MB)    (FT/S) (FT/S/D)
UPR LAKE MARION  NOT AVBL
WINYAH BAY       1745   63     260/  7     1022.0F
LAKE MURRAY      1800   57     170/  6/  7 1023.0F
ACE BASIN NERRS  NOT AVBL
FORT PULASKI     1800   62 49  300/  6/  7 1025.5F
SAPELO ISLAND    1800   63     250/  2     1025.0F

$$

ANZ835-935-AMZ111-154-330-350-352-354-370-450-454-472-021900-
...C-MAN AND BUOY OBSERVATIONS...

STATION/POSITION TIME  TEMP    WIND        PRES    WAVE   SWELL
                       AIR SEA DIR/SP/G            HT/PER HT/PER/DIR
                 (UTC) (F)     (DEG/KT/KT) (MB)    (FT/S) (FT/S/D)
BUOY 41004       1750   58 68  260/ 12/ 14 1024.2F   4/ 9   3/ 9
BUOY 41008       1750   52 53  240/  6/  6 1026.0F   3/ 8   3/100/ 8
FOLLY BEACH CMAN 1800   51     200/  9/ 10 1024.8F
CAPERS NEARSHORE NOT AVBL
FRIPP NEARSHORE  1700   52     260/  8/ 10 1025.3F


STATION/POSITION TIME  TEMP    WIND        PRES    WAVE   SWELL
                       AIR SEA DIR/SP/G            HT/PER HT/PER/DIR
                 (UTC) (F)     (DEG/KT/KT) (MB)    (FT/S) (FT/S/D)
5E ST. MARYS GA  1721      53                N/A     3/ 9
FRYING PAN BUOY  1750   57 61  270/ 14/ 17 1024.4F   4/ 9   3/120/ 9
BUOY 41025       NOT AVBL
CAPE LOOKOUT NC  1800   51     260/  7/  8 1023.2F
BUOY 41002       1750   71 73  280/  8/ 10 1023.6F   6/ 9   5/110/ 9
BUOY 41010       1720   74 76  210/  6/  8 1025.7F
ST AUGUSTINE FL  1800   56     160/  5/  5 1025.8F


$$



USA.gov is the U.S. government's official web portal to all federal, state and local government web resources and services.